SCP
0 0 0 0 0 0 0 0 0 0 0 0 0 0 0 0 0 0 0 0 0 0 1 1 1 1 1 0 0 0 0 0 0 0 0 0 0 0 0 0 0 0 0 0 0 0 0 0 0
0 0 0 0 0 0 0 0 0 0 0 0 0 0 0 0 0 0 0 0 0 0 1 1 1 1 1 0 0 0 0 0 0 0 0 0 0 0 0 0 0 0 0 0 0 0 0 0 0
0 0 0 0 0 0 0 0 0 0 0 0 0 0 0 0 0 0 0 0 0 0 1 1 1 1 1 0 0 0 0 0 0 0 0 0 0 0 0 0 0 0 0 0 0 0 0 0 0
0 0 0 0 0 0 0 0 0 0 0 0 0 0 0 0 0 0 0 0 0 0 1 1 1 1 1 0 0 0 0 0 0 0 0 0 0 0 0 0 0 0 0 0 0 0 0 0 0
0 0 0 0 0 0 0 0 0 0 0 0 0 0 0 0 0 0 0 0 0 0 1 1 1 1 1 0 0 0 0 0 0 0 0 0 0 0 0 0 0 0 0 0 0 0 0 0 0
0 0 0 0 0 0 0 0 0 0 0 0 0 0 0 0 0 0 0 0 0 0 0 1 1 1 0 0 0 0 0 0 0 0 0 0 0 0 0 0 0 0 0 0 0 0 0 0 0
0 0 0 0 0 0 0 0 0 0 0 0 0 0 0 0 0 0 0 0 0 0 0 0 0 0 0 0 0 0 0 0 0 0 0 0 0 0 0 0 0 0 0 0 0 0 0 0 0
0 0 0 0 0 0 0 0 0 0 0 0 0 0 0 0 0 0 0 0 0 0 0 0 0 0 0 0 0 0 0 0 0 0 0 0 0 0 0 0 0 0 0 0 0 0 0 0 0
0 0 0 0 0 0 0 0 0 0 0 0 0 0 0 0 0 0 0 0 0 0 0 0 0 0 0 0 0 0 0 0 0 0 0 0 0 0 0 0 0 0 0 0 0 0 0 0 0
0 0 0 0 0 0 0 0 0 0 0 0 0 0 0 0 0 0 0 0 0 0 0 0 0 0 0 0 0 0 0 0 0 0 0 0 0 0 0 0 0 0 0 0 0 0 0 0 0
0 0 0 0 0 0 0 0 0 0 0 0 0 0 0 0 0 0 0 0 0 0 0 0 0 0 0 0 0 0 0 0 0 0 0 0 0 0 0 0 0 0 0 0 0 0 0 0 0
0 0 0 0 0 0 0 0 0 0 0 0 0 0 0 0 0 0 0 0 0 0 0 0 0 0 0 0 0 0 0 0 0 0 0 0 0 0 0 0 0 0 0 0 0 0 0 0 0
0 0 0 0 0 0 0 0 0 0 0 0 0 0 0 0 0 0 0 0 0 0 0 0 0 0 0 1 1 1 0 0 0 0 0 0 0 0 0 0 0 0 0 0 0 0 0 0 0
0 0 0 0 0 0 0 0 0 0 0 0 0 0 0 0 0 0 0 0 0 0 0 0 0 0 1 1 1 1 1 1 0 0 0 0 0 0 0 0 0 0 0 0 0 0 0 0 0
0 0 0 0 0 0 0 0 0 0 0 0 0 0 0 0 0 0 0 0 0 0 0 0 0 0 1 1 1 1 1 1 1 0 0 0 0 0 0 0 0 0 0 0 0 0 0 0 0
0 0 0 0 0 0 0 0 0 0 0 0 0 0 0 0 0 0 0 0 0 0 0 0 0 0 1 1 1 1 1 1 0 0 0 0 0 0 0 0 0 0 0 0 0 0 0 0 0
0 0 0 0 0 0 0 0 0 0 0 0 0 0 0 0 0 0 0 0 0 0 0 0 0 0 1 1 1 1 1 0 0 0 0 0 0 0 0 0 0 0 0 0 0 0 0 0 0
0 0 0 0 0 0 0 0 0 0 0 0 0 0 0 0 0 0 0 0 0 0 0 0 0 0 0 1 1 0 0 0 0 0 0 0 0 0 0 0 0 0 0 0 0 0 0 0 0
0 0 0 0 0 0 0 0 0 0 0 0 0 0 0 0 0 0 0 0 0 0 0 0 0 0 0 0 0 0 0 0 0 0 0 0 0 0 0 0 0 0 0 0 0 0 0 0 0
0 0 0 0 0 0 0 0 0 0 0 0 0 0 0 0 0 0 0 0 0 0 0 0 0 0 0 0 0 0 0 0 0 0 0 0 0 0 0 0 0 0 0 0 0 0 0 0 0
0 0 0 0 0 0 0 0 0 0 0 0 0 0 0 0 0 0 0 0 0 0 0 0 0 0 0 0 0 0 0 0 0 0 0 0 0 0 0 0 0 0 0 0 0 0 0 0 0
0 0 0 0 0 0 0 0 0 0 0 0 0 0 0 0 0 0 0 0 0 0 0 0 0 0 0 0 0 0 0 0 0 0 0 0 0 0 0 0 0 0 0 0 0 0 0 0 0
0 0 0 0 0 0 0 0 0 0 0 0 0 0 0 0 0 0 0 0 0 0 0 0 0 0 0 0 0 0 0 0 0 0 0 0 0 0 0 0 0 0 0 0 0 0 0 0 0
0 0 0 0 0 0 0 0 0 0 0 0 0 0 0 0 0 0 0 0 0 0 0 0 0 0 0 0 0 0 0 0 0 0 0 0 0 0 0 0 0 0 0 0 0 0 0 0 0
0 0 0 0 0 0 0 0 0 0 0 0 0 0 0 0 0 0 0 0 0 0 0 0 0 0 0 0 0 0 0 0 0 0 0 0 0 0 0 0 0 0 0 0 0 0 0 0 0
0 0 0 0 0 0 0 0 0 0 0 0 0 0 0 0 0 0 0 0 0 0 0 0 0 0 0 0 0 0 0 0 0 0 0 0 0 0 0 0 0 0 0 0 0 0 0 0 0
0 0 0 0 0 0 0 0 0 0 0 0 0 0 0 0 0 0 0 0 0 0 0 0 0 0 0 0 0 0 0 0 0 0 0 0 0 0 0 0 0 0 0 0 0 0 0 0 0
0 0 0 0 0 0 0 0 0 0 0 0 0 0 0 0 0 0 0 0 0 0 0 0 0 0 0 0 0 0 0 0 0 0 0 0 0 0 0 0 0 0 0 0 0 0 0 0 0
0 0 0 0 0 0 0 0 0 0 0 0 0 0 0 0 0 0 0 0 0 0 0 0 0 0 0 0 0 0 0 0 0 0 0 0 0 0 0 0 0 0 0 0 0 0 0 0 0
0 0 0 0 0 0 0 0 0 0 0 0 0 0 0 0 0 0 0 0 0 0 0 0 0 0 0 0 0 0 0 0 0 0 0 0 0 0 0 0 0 0 0 0 0 0 0 0 0
Wind_Speed
15 13 8 2 3 4 8 10 8 3 3 7 6 6 7 6 6 6 4 7 9 14 15 14 15 15 14 13 12 10 8 6 5 5 5 5 5 5 6 6 6 7 7 7 9 10 10 9 7
10 12 7 3 3 5 7 10 5 3 7 6 6 5 6 2 9 8 6 6 8 13 15 13 14 14 13 12 11 9 7 6 4 4 5 4 5 5 5 6 6 7 7 7 7 8 8 8 7
11 11 4 4 5 7 7 4 4 7 6 4 4 6 3 5 7 6 7 6 8 9 12 14 15 13 13 12 11 9 7 6 4 3 4 3 4 4 4 5 5 5 5 5 5 6 6 6 6
6 4 4 5 11 10 5 6 7 8 6 4 3 6 5 5 5 6 7 6 8 9 13 14 14 13 13 12 11 9 7 6 4 3 3 2 2 2 3 4 4 3 3 3 4 4 4 4 5
5 4 6 9 12 12 3 3 5 4 6 5 3 5 6 4 7 8 6 4 7 9 13 13 14 13 12 12 11 9 7 6 5 4 2 1 1 2 2 4 3 1 1 2 3 3 4 4 5
4 4 7 10 13 11 3 2 1 6 7 5 3 5 6 5 7 6 6 4 7 9 12 12 12 11 11 12 12 10 8 6 5 3 2 1 1 2 2 3 2 1 2 3 4 5 6 6 7
6 7 10 13 13 9 2 6 2 5 6 5 4 4 6 6 4 4 6 4 7 8 11 11 9 9 9 10 11 10 8 6 5 3 2 1 2 1 2 3 3 3 4 5 6 7 8 9 9
7 6 14 14 13 12 1 4 1 4 6 5 2 3 5 4 4 4 4 4 6 6 7 11 11 10 8 8 10 10 9 7 6 4 3 3 4 6 8 7 7 6 5 6 8 9 10 11 11
10 11 14 13 12 9 2 3 3 2 4 6 5 3 5 8 7 6 4 4 4 5 5 6 10 10 10 10 11 10 9 8 7 6 8 6 5 7 7 9 6 7 6 8 10 11 12 11 11
8 12 17 13 13 9 3 4 2 3 6 7 5 3 4 4 3 5 6 7 8 7 5 5 5 8 8 7 8 6 7 7 7 6 8 6 6 3 3 8 8 8 8 9 11 14 13 10 6
13 17 12 15 15 10 6 3 3 5 7 8 6 4 4 4 3 5 6 7 9 11 8 6 6 6 6 4 5 4 4 5 7 7 6 5 3 2 2 3 4 5 7 5 7 8 6 6 6
19 19 18 16 13 9 5 5 8 8 7 7 8 6 4 5 6 5 3 2 2 7 11 8 7 5 5 6 4 3 3 3 3 3 2 2 1 1 1 1 1 2 2 3 3 3 5 6 6
23 20 18 16 15 10 6 7 10 10 9 9 9 6 5 5 5 3 3 2 2 3 8 9 7 6 6 4 4 3 3 3 3 3 1 1 1 1 0 1 1 2 2 2 2 3 4 5 5
16 17 20 17 15 11 8 10 12 12 10 11 9 6 4 2 1 3 3 3 3 0 3 6 7 6 6 5 4 3 2 3 2 3 3 2 1 2 2 3 3 2 2 2 2 4 4 4 4
19 17 17 19 16 11 9 15 15 13 12 13 10 6 4 3 2 0 2 3 4 4 3 2 3 4 5 5 6 3 2 3 3 4 4 4 2 2 2 2 3 3 4 4 4 5 4 5 5
14 17 19 18 17 14 12 15 10 10 12 11 8 5 5 6 4 3 3 0 1 1 1 2 2 2 3 4 5 4 3 5 5 5 5 6 5 5 4 4 4 5 5 5 4 4 5 5 5
12 18 20 18 17 16 17 13 9 10 9 6 6 6 5 8 7 6 3 2 1 1 3 3 3 3 5 7 7 7 7 8 8 7 7 8 9 9 6 5 5 6 5 5 5 5 4 5 6
15 19 20 20 15 18 19 16 10 10 8 7 7 7 5 8 8 7 5 3 2 2 4 5 5 6 7 8 8 8 9 8 7 7 7 8 8 9 7 5 7 6 5 5 6 6 6 5 6
18 19 20 18 16 17 18 16 13 12 12 10 8 7 6 9 9 7 5 5 4 5 6 6 7 7 7 7 7 7 6 6 6 6 8 8 8 8 7 6 6 6 5 6 6 5 6 5 5
25 22 19 15 17 16 12 13 10 12 13 10 9 8 8 12 9 7 6 6 7 7 7 8 8 9 9 7 6 7 7 6 5 5 7 8 8 8 7 7 5 5 5 6 6 5 4 5 6
26 23 18 16 14 12 6 9 12 14 13 10 8 7 11 15 12 9 8 8 8 8 8 9 10 11 10 10 8 7 6 5 5 5 5 7 8 7 7 7 5 5 5 4 5 5 6 5 5
22 21 20 17 11 7 9 6 12 18 15 10 8 7 12 13 12 10 9 8 8 7 7 8 9 9 8 8 7 7 6 6 5 4 4 6 7 7 6 6 6 5 4 5 5 5 4 5 5
14 16 20 15 10 7 9 6 7 5 10 10 8 9 13 13 13 11 10 9 8 7 7 8 9 9 9 9 9 8 7 5 4 4 5 5 5 6 6 6 5 5 4 5 5 5 5 3 4
14 14 11 6 5 6 8 7 6 7 14 15 11 12 13 13 13 12 10 9 8 7 7 8 9 9 9 9 9 8 8 7 7 6 5 4 4 4 6 5 5 5 4 4 4 4 5 4 5
16 11 8 8 7 6 9 8 7 2 8 15 16 15 14 14 13 12 10 9 8 8 7 8 9 9 9 9 9 8 8 8 7 5 5 4 4 3 5 5 4 4 4 5 4 4 5 6 6
16 13 6 7 8 6 9 8 3 8 8 11 14 15 14 14 12 11 10 9 9 8 8 8 9 9 8 8 8 8 7 5 4 6 5 4 3 3 4 5 5 5 5 6 5 4 5 6 6
10 14 6 1 9 6 6 5 6 6 7 9 13 15 14 14 13 12 11 10 9 8 8 9 9 9 8 8 8 7 7 6 6 6 5 3 3 3 4 5 5 5 5 5 6 4 6 6 6
8 7 3 3 7 6 9 9 9 10 10 10 13 15 14 14 13 12 11 10 8 8 9 9 9 8 8 7 6 6 6 6 5 5 5 4 4 4 4 5 5 6 6 6 6 6 6 7 7
9 8 6 3 1 3 6 3 3 12 12 12 13 15 15 14 14 12 11 10 9 9 8 9 8 8 8 7 7 7 6 5 5 5 4 4 4 4 4 5 5 6 6 6 6 7 8 8 8
5 6 5 2 0 2 4 3 4 8 8 9 12 14 14 13 12 12 11 11 10 9 8 8 8 8 7 7 7 6 5 5 4 4 3 3 4 4 4 5 5 6 7 6 7 8 9 8 9
Wind_Direction
312 305 305 297 274 239 250 258 265 79 34 34 344 300 296 311 38 93 110 85 105 122 134 148 152 153 150 145 141 135 127 118 110 106 100 90 78 72 62 49 39 33 27 19 14 14 19 30 46
300 302 305 262 256 265 246 242 257 73 32 4 307 268 263 69 87 107 104 86 109 125 138 149 150 155 152 149 144 138 131 121 116 113 111 99 91 80 69 58 45 35 30 23 13 10 14 24 31
280 279 278 269 254 259 290 336 18 39 7 311 297 300 350 37 59 79 104 119 111 121 134 140 149 155 154 151 146 141 132 124 123 120 112 109 106 100 83 73 58 44 33 19 11 7 6 7 6
285 288 236 243 261 265 283 324 18 9 323 282 289 299 72 35 50 95 124 142 126 128 123 139 148 155 156 154 151 145 137 132 132 127 110 110 134 120 102 96 85 58 35 16 3 355 351 344 332
260 249 255 256 261 266 271 333 19 323 283 294 320 306 77 71 95 112 131 142 129 125 125 141 147 155 159 159 155 150 144 139 139 142 142 126 156 137 114 128 124 87 11 345 330 320 312 306 300
253 237 248 255 259 255 196 82 341 271 279 289 320 307 91 71 75 101 123 166 120 118 126 137 147 154 161 163 160 159 155 151 151 158 171 155 82 95 113 154 162 212 297 310 310 306 294 288 281
241 252 255 262 273 276 175 102 275 286 303 321 10 313 98 73 78 124 142 165 121 126 132 144 152 156 163 166 167 168 163 161 165 177 170 95 100 143 178 191 211 241 274 289 294 295 292 289 287
247 254 257 258 266 276 239 114 241 282 294 328 329 296 101 115 121 119 135 154 132 142 151 154 161 167 170 173 177 173 171 172 179 191 185 175 206 227 227 218 215 225 251 277 284 285 287 288 289
256 243 242 243 252 264 188 144 248 297 271 269 260 266 123 139 140 140 157 169 156 162 169 165 163 171 174 177 177 174 176 186 190 203 212 209 227 231 220 218 200 208 242 267 275 278 279 280 279
223 232 236 245 260 279 265 159 255 297 287 281 258 197 129 122 135 174 186 184 177 180 188 183 175 164 169 169 158 177 184 187 199 213 197 206 223 223 118 160 196 222 247 262 267 267 271 273 262
225 231 243 249 258 276 293 301 280 261 263 277 297 341 13 12 297 242 220 203 185 180 183 185 187 168 164 148 159 175 182 177 196 215 183 190 197 153 166 180 203 226 237 243 256 253 245 239 242
235 235 237 248 260 266 267 285 282 274 273 287 303 316 317 293 276 263 252 267 191 170 173 180 183 174 173 156 168 175 172 168 175 176 172 161 137 124 251 218 225 228 232 225 243 252 260 259 262
236 238 241 244 250 255 240 250 265 269 278 278 274 269 260 263 273 308 350 342 286 189 162 170 177 178 172 163 157 174 176 159 162 137 132 100 99 214 357 327 298 282 288 289 281 284 295 303 305
243 241 244 249 244 244 241 249 253 257 263 266 261 251 235 239 6 352 343 345 329 127 152 156 168 181 170 157 153 174 167 125 108 119 118 86 51 41 26 348 346 335 324 315 316 315 314 308 309
251 250 243 239 243 235 242 249 244 249 251 254 256 244 185 145 114 301 47 1 352 6 18 107 151 167 168 163 157 152 146 122 101 89 79 70 53 53 33 11 6 352 353 358 1 353 346 337 333
245 237 241 233 231 229 229 249 247 245 239 233 228 230 175 147 154 114 91 30 47 359 3 78 108 144 152 132 120 110 89 84 77 68 63 55 45 52 50 38 20 10 19 17 7 6 355 342 332
234 223 225 228 221 222 228 244 240 247 242 224 217 226 192 147 136 110 103 79 74 153 136 121 131 140 116 101 89 83 73 66 63 57 53 51 45 45 50 43 26 13 22 17 6 6 356 337 331
217 220 222 221 215 219 228 235 231 247 245 225 227 227 194 144 120 103 95 87 61 71 103 113 110 107 99 93 85 77 71 67 63 60 56 53 49 42 37 43 31 16 21 17 11 4 353 341 341
246 233 224 221 216 224 227 234 233 233 243 239 232 226 176 123 113 118 132 127 97 75 81 96 104 101 97 98 97 92 85 76 66 61 59 55 50 46 42 31 31 20 19 23 11 4 349 342 338
242 246 233 221 215 221 228 237 236 231 230 224 222 214 156 124 121 124 123 106 95 84 79 81 85 87 87 90 91 95 95 88 81 67 58 58 52 44 45 34 28 19 19 20 7 8 354 340 344
234 237 231 221 211 208 219 255 247 242 235 224 215 195 143 136 135 133 108 89 81 76 78 86 86 89 93 96 99 102 97 93 84 77 68 60 56 45 40 37 28 19 24 16 2 13 1 337 332
234 228 231 224 195 193 192 243 241 222 211 202 189 165 137 133 132 127 115 102 91 84 82 89 95 99 103 107 107 106 102 99 98 101 96 84 69 53 34 34 28 22 25 18 359 5 346 345 333
234 227 225 221 205 206 189 217 273 188 166 174 174 147 132 131 129 124 118 112 100 90 84 82 82 80 80 80 84 92 94 97 88 79 73 81 75 61 33 27 22 24 22 6 353 353 345 340 331
233 234 222 213 208 219 207 209 259 215 178 172 160 140 134 131 125 118 113 108 102 93 87 85 84 80 77 78 78 84 87 81 74 66 58 58 65 55 32 21 16 19 9 349 341 348 334 317 306
223 204 168 167 181 206 193 204 232 57 128 151 149 144 139 135 131 130 129 126 121 113 108 103 99 92 84 81 77 75 77 77 71 66 58 52 46 39 21 15 3 360 350 340 343 336 317 305 301
211 203 180 153 159 176 189 200 180 114 86 118 137 139 140 140 139 140 138 132 129 128 122 112 105 99 92 88 85 79 76 75 70 63 61 56 49 35 16 6 354 349 344 339 335 321 311 308 304
193 210 255 209 161 158 167 176 117 117 112 128 139 143 148 148 146 145 138 135 135 133 123 116 110 105 100 95 91 84 79 77 72 67 58 49 35 22 13 358 348 338 334 331 329 317 309 307 302
247 219 240 236 165 161 167 183 171 169 162 160 156 156 155 153 150 146 141 138 138 129 123 119 114 109 101 93 92 91 79 75 74 68 54 35 24 16 359 349 338 329 327 327 324 314 306 306 304
195 204 228 265 330 148 149 142 122 157 161 164 164 160 159 156 153 147 143 139 131 126 125 120 115 112 109 104 93 85 75 67 69 67 49 25 12 1 349 338 329 323 321 323 319 314 309 308 310
230 198 213 175 165 336 91 91 69 104 120 148 154 154 154 151 148 144 140 135 134 136 132 126 122 114 109 105 99 95 84 68 62 58 38 17 1 344 333 328 323 320 320 317 313 310 310 315 320